| time (UTC) | temp F | wind direction | speed MPH | gust MPH | rain 1hr in | rain 24hr in | rain mn in | humidity % | barometer mb |
| 20260507095503 | 67 | 316 | 10.0 | 12.0 | 0.00 | 0.00 | 0.00 | 40 | 1015.5 |
| 20260507095334 | 65 | 321 | 10.0 | 12.0 | 0.00 | 0.00 | 0.00 | 40 | 1015.6 |
| 20260507094831 | 65 | 303 | 9.0 | 10.0 | 0.00 | 0.00 | 0.00 | 40 | 1015.9 |
| 20260507094503 | 67 | 314 | 9.0 | 10.0 | 0.00 | 0.00 | 0.00 | 39 | 1016.0 |
| 20260507094328 | 65 | 317 | 9.0 | 10.0 | 0.00 | 0.00 | 0.00 | 39 | 1015.7 |
| 20260507094003 | 67 | 313 | 10.0 | 12.0 | 0.00 | 0.00 | 0.00 | 39 | 1015.6 |
| 20260507093825 | 65 | 318 | 8.0 | 9.0 | 0.00 | 0.00 | 0.00 | 39 | 1015.8 |
| 20260507093503 | 67 | 314 | 9.0 | 12.0 | 0.00 | 0.00 | 0.00 | 39 | 1015.6 |
| 20260507093324 | 65 | 324 | 9.0 | 10.0 | 0.00 | 0.00 | 0.00 | 39 | 1015.5 |
| 20260507093003 | 66 | 319 | 9.0 | 10.0 | 0.00 | 0.00 | 0.00 | 40 | 1015.7 |
| 20260507092821 | 64 | 328 | 8.0 | 9.0 | 0.00 | 0.00 | 0.00 | 40 | 1015.6 |
| 20260507092503 | 66 | 314 | 9.0 | 12.0 | 0.00 | 0.00 | 0.00 | 40 | 1015.7 |
| 20260507092318 | 64 | 326 | 8.0 | 9.0 | 0.00 | 0.00 | 0.00 | 40 | 1015.6 |
| 20260507092004 | 67 | 314 | 10.0 | 12.0 | 0.00 | 0.00 | 0.00 | 39 | 1016.0 |
| 20260507091814 | 65 | 301 | 7.0 | 7.0 | 0.00 | 0.00 | 0.00 | 39 | 1015.6 |
| 20260507091524 | 67 | 312 | 11.0 | 13.0 | 0.00 | 0.00 | 0.00 | 39 | 1015.7 |
| 20260507091310 | 65 | 314 | 10.0 | 12.0 | 0.00 | 0.00 | 0.00 | 39 | 1015.9 |
| 20260507091003 | 67 | 313 | 11.0 | 13.0 | 0.00 | 0.00 | 0.00 | 39 | 1015.8 |
| 20260507090805 | 65 | 304 | 9.0 | 10.0 | 0.00 | 0.00 | 0.00 | 38 | 1015.7 |
| 20260507090503 | 67 | 314 | 12.0 | 13.0 | 0.00 | 0.00 | 0.00 | 38 | 1016.1 |
| 20260507090302 | 65 | 323 | 10.0 | 10.0 | 0.00 | 0.00 | 0.00 | 38 | 1015.8 |
| 20260507090003 | 67 | 313 | 11.0 | 13.0 | 0.00 | 0.00 | 0.00 | 39 | 1015.8 |
| 20260507085759 | 65 | 297 | 10.0 | 12.0 | 0.00 | 0.00 | 0.00 | 39 | 1015.9 |
| 20260507085503 | 67 | 314 | 11.0 | 13.0 | 0.00 | 0.00 | 0.00 | 39 | 1015.8 |
| 20260507085256 | 65 | 310 | 9.0 | 10.0 | 0.00 | 0.00 | 0.00 | 39 | 1015.8 |
| 20260507085004 | 67 | 316 | 11.0 | 13.0 | 0.00 | 0.00 | 0.00 | 38 | 1015.8 |
| 20260507084753 | 65 | 305 | 10.0 | 12.0 | 0.00 | 0.00 | 0.00 | 38 | 1015.9 |
| 20260507084503 | 67 | 313 | 12.0 | 15.0 | 0.00 | 0.00 | 0.00 | 37 | 1016.1 |
| 20260507084249 | 66 | 322 | 9.0 | 9.0 | 0.00 | 0.00 | 0.00 | 36 | 1015.7 |
| 20260507084003 | 68 | 306 | 13.0 | 15.0 | 0.00 | 0.00 | 0.00 | 37 | 1016.0 |
| 20260507083747 | 66 | 321 | 10.0 | 10.0 | 0.00 | 0.00 | 0.00 | 36 | 1015.8 |
| 20260507083503 | 68 | 301 | 13.0 | 15.0 | 0.00 | 0.00 | 0.00 | 36 | 1016.0 |
| 20260507083244 | 65 | 312 | 13.0 | 13.0 | 0.00 | 0.00 | 0.00 | 36 | 1015.8 |
| 20260507083003 | 67 | 301 | 14.0 | 16.0 | 0.00 | 0.00 | 0.00 | 36 | 1015.8 |
| 20260507082740 | 65 | 284 | 10.0 | 12.0 | 0.00 | 0.00 | 0.00 | 35 | 1015.7 |
| 20260507082503 | 67 | 306 | 15.0 | 16.0 | 0.00 | 0.00 | 0.00 | 36 | 1015.8 |
| 20260507082235 | 65 | 296 | 13.0 | 15.0 | 0.00 | 0.00 | 0.00 | 35 | 1015.9 |
| 20260507082026 | 67 | 305 | 13.0 | 16.0 | 0.00 | 0.00 | 0.00 | 35 | 1016.0 |
| 20260507081732 | 65 | 302 | 13.0 | 15.0 | 0.00 | 0.00 | 0.00 | 35 | 1015.9 |
| 20260507081524 | 67 | 306 | 11.0 | 13.0 | 0.00 | 0.00 | 0.00 | 34 | 1016.0 |
| 20260507081228 | 65 | 300 | 9.0 | 9.0 | 0.00 | 0.00 | 0.00 | 33 | 1015.9 |
| 20260507081003 | 67 | 307 | 12.0 | 13.0 | 0.00 | 0.00 | 0.00 | 34 | 1016.1 |
| 20260507080725 | 66 | 319 | 11.0 | 12.0 | 0.00 | 0.00 | 0.00 | 33 | 1016.0 |
| 20260507080503 | 67 | 304 | 12.0 | 13.0 | 0.00 | 0.00 | 0.00 | 33 | 1016.3 |
| 20260507080221 | 65 | 297 | 11.0 | 13.0 | 0.00 | 0.00 | 0.00 | 31 | 1015.7 |
| 20260507080004 | 67 | 306 | 10.0 | 12.0 | 0.00 | 0.00 | 0.00 | 31 | 1015.8 |
| 20260507075717 | 65 | 320 | 10.0 | 12.0 | 0.00 | 0.00 | 0.00 | 30 | 1015.9 |
| 20260507075503 | 67 | 305 | 10.0 | 12.0 | 0.00 | 0.00 | 0.00 | 30 | 1015.8 |
| 20260507075214 | 66 | 292 | 9.0 | 9.0 | 0.00 | 0.00 | 0.00 | 29 | 1015.9 |
| 20260507075005 | 68 | 305 | 9.0 | 12.0 | 0.00 | 0.00 | 0.00 | 29 | 1016.0 |
| 20260507074710 | 66 | 309 | 7.0 | 9.0 | 0.00 | 0.00 | 0.00 | 29 | 1015.9 |
| 20260507074503 | 68 | 304 | 8.0 | 10.0 | 0.00 | 0.00 | 0.00 | 29 | 1016.0 |
| 20260507074209 | 66 | 307 | 8.0 | 9.0 | 0.00 | 0.00 | 0.00 | 28 | 1015.8 |
| 20260507074003 | 68 | 302 | 8.0 | 10.0 | 0.00 | 0.00 | 0.00 | 28 | 1016.1 |
| 20260507073704 | 66 | 287 | 6.0 | 7.0 | 0.00 | 0.00 | 0.00 | 28 | 1015.8 |
| 20260507073503 | 68 | 299 | 9.0 | 12.0 | 0.00 | 0.00 | 0.00 | 28 | 1016.1 |
| 20260507073201 | 66 | 282 | 6.0 | 6.0 | 0.00 | 0.00 | 0.00 | 28 | 1016.0 |
| 20260507073003 | 68 | 293 | 9.0 | 12.0 | 0.00 | 0.00 | 0.00 | 27 | 1016.0 |
| 20260507072659 | 66 | 301 | 10.0 | 12.0 | 0.00 | 0.00 | 0.00 | 28 | 1015.8 |
| 20260507072524 | 68 | 284 | 9.0 | 13.0 | 0.00 | 0.00 | 0.00 | 28 | 1016.1 |
| 20260507072156 | 66 | 301 | 7.0 | 7.0 | 0.00 | 0.00 | 0.00 | 29 | 1016.1 |
| 20260507072025 | 67 | 276 | 10.0 | 13.0 | 0.00 | 0.00 | 0.00 | 30 | 1016.2 |
| 20260507071653 | 65 | 291 | 11.0 | 12.0 | 0.00 | 0.00 | 0.00 | 32 | 1016.0 |
| 20260507071503 | 67 | 268 | 9.0 | 10.0 | 0.00 | 0.00 | 0.00 | 34 | 1016.0 |
| 20260507071149 | 66 | 279 | 8.0 | 10.0 | 0.00 | 0.00 | 0.00 | 34 | 1016.0 |
| 20260507071003 | 68 | 258 | 9.0 | 10.0 | 0.00 | 0.00 | 0.00 | 34 | 1016.1 |
| 20260507070647 | 66 | 249 | 7.0 | 7.0 | 0.00 | 0.00 | 0.00 | 34 | 1015.8 |
| 20260507070503 | 68 | 253 | 9.0 | 12.0 | 0.00 | 0.00 | 0.00 | 35 | 1015.8 |
| 20260507070143 | 66 | 257 | 8.0 | 9.0 | 0.00 | 0.00 | 0.00 | 35 | 1016.0 |
| 20260507070006 | 68 | 254 | 10.0 | 12.0 | 0.00 | 0.00 | 0.00 | 35 | 1015.8 |
| 20260507065640 | 67 | 244 | 8.0 | 9.0 | 0.00 | 0.00 | 0.00 | 35 | 1015.8 |
| 20260507065503 | 68 | 253 | 10.0 | 12.0 | 0.00 | 0.00 | 0.00 | 35 | 1015.7 |
| 20260507065137 | 66 | 256 | 9.0 | 10.0 | 0.00 | 0.00 | 0.00 | 35 | 1015.7 |
| 20260507065004 | 68 | 254 | 9.0 | 12.0 | 0.00 | 0.00 | 0.00 | 35 | 1015.7 |
| 20260507064634 | 66 | 258 | 7.0 | 9.0 | 0.00 | 0.00 | 0.00 | 35 | 1015.8 |
| 20260507064503 | 68 | 255 | 9.0 | 12.0 | 0.00 | 0.00 | 0.00 | 35 | 1016.0 |
| 20260507064133 | 66 | 248 | 9.0 | 10.0 | 0.00 | 0.00 | 0.00 | 34 | 1015.8 |
| 20260507064003 | 68 | 254 | 9.0 | 12.0 | 0.00 | 0.00 | 0.00 | 34 | 1015.8 |
| 20260507063630 | 67 | 268 | 10.0 | 12.0 | 0.00 | 0.00 | 0.00 | 34 | 1015.7 |
| 20260507063503 | 68 | 254 | 9.0 | 12.0 | 0.00 | 0.00 | 0.00 | 34 | 1015.8 |
| 20260507063127 | 67 | 270 | 7.0 | 9.0 | 0.00 | 0.00 | 0.00 | 33 | 1015.8 |
| 20260507063003 | 69 | 256 | 9.0 | 12.0 | 0.00 | 0.00 | 0.00 | 33 | 1016.0 |
| 20260507062623 | 68 | 267 | 6.0 | 7.0 | 0.00 | 0.00 | 0.00 | 33 | 1015.8 |
| 20260507062503 | 70 | 258 | 11.0 | 13.0 | 0.00 | 0.00 | 0.00 | 33 | 1015.8 |
| 20260507062121 | 68 | 248 | 9.0 | 10.0 | 0.00 | 0.00 | 0.00 | 33 | 1015.8 |
| 20260507062005 | 70 | 255 | 10.0 | 13.0 | 0.00 | 0.00 | 0.00 | 33 | 1016.0 |
| 20260507061619 | 68 | 256 | 8.0 | 10.0 | 0.00 | 0.00 | 0.00 | 33 | 1015.6 |
| 20260507061504 | 70 | 250 | 10.0 | 13.0 | 0.00 | 0.00 | 0.00 | 33 | 1015.7 |
| 20260507061117 | 68 | 247 | 8.0 | 10.0 | 0.00 | 0.00 | 0.00 | 34 | 1015.6 |
| 20260507061003 | 70 | 248 | 10.0 | 12.0 | 0.00 | 0.00 | 0.00 | 34 | 1015.7 |
| 20260507060615 | 68 | 232 | 9.0 | 12.0 | 0.00 | 0.00 | 0.00 | 34 | 1015.6 |
| 20260507060503 | 70 | 247 | 11.0 | 15.0 | 0.00 | 0.00 | 0.00 | 35 | 1015.6 |
| 20260507060111 | 68 | 249 | 11.0 | 12.0 | 0.00 | 0.00 | 0.00 | 35 | 1015.7 |
| 20260507060024 | 70 | 242 | 11.0 | 15.0 | 0.00 | 0.00 | 0.00 | 35 | 1015.6 |
| 20260507055606 | 68 | 249 | 8.0 | 9.0 | 0.00 | 0.00 | 0.00 | 35 | 1015.5 |
| 20260507055503 | 70 | 244 | 11.0 | 13.0 | 0.00 | 0.00 | 0.00 | 35 | 1015.7 |
| 20260507055102 | 68 | 240 | 9.0 | 12.0 | 0.00 | 0.00 | 0.00 | 35 | 1015.8 |
| 20260507055004 | 70 | 247 | 12.0 | 15.0 | 0.00 | 0.00 | 0.00 | 35 | 1015.8 |
| 20260507054558 | 69 | 245 | 11.0 | 12.0 | 0.00 | 0.00 | 0.00 | 35 | 1015.6 |
| 20260507054504 | 71 | 248 | 13.0 | 15.0 | 0.00 | 0.00 | 0.00 | 35 | 1015.6 |
| 20260507054056 | 69 | 243 | 11.0 | 12.0 | 0.00 | 0.00 | 0.00 | 34 | 1015.8 |
| 20260507054003 | 71 | 245 | 13.0 | 16.0 | 0.00 | 0.00 | 0.00 | 34 | 1015.7 |
| 20260507053553 | 69 | 242 | 11.0 | 13.0 | 0.00 | 0.00 | 0.00 | 34 | 1015.6 |
| 20260507053503 | 71 | 241 | 13.0 | 16.0 | 0.00 | 0.00 | 0.00 | 34 | 1015.6 |
| 20260507053052 | 69 | 231 | 10.0 | 12.0 | 0.00 | 0.00 | 0.00 | 35 | 1015.7 |
| 20260507053003 | 71 | 242 | 12.0 | 16.0 | 0.00 | 0.00 | 0.00 | 35 | 1015.7 |
| 20260507052549 | 69 | 232 | 11.0 | 13.0 | 0.00 | 0.00 | 0.00 | 35 | 1015.9 |
| 20260507052503 | 71 | 241 | 12.0 | 16.0 | 0.00 | 0.00 | 0.00 | 35 | 1016.0 |
| 20260507052046 | 69 | 247 | 8.0 | 10.0 | 0.00 | 0.00 | 0.00 | 35 | 1015.5 |
| 20260507052003 | 71 | 243 | 14.0 | 18.0 | 0.00 | 0.00 | 0.00 | 35 | 1015.7 |
| 20260507051543 | 69 | 240 | 15.0 | 16.0 | 0.00 | 0.00 | 0.00 | 35 | 1015.6 |
| 20260507051505 | 71 | 245 | 16.0 | 18.0 | 0.00 | 0.00 | 0.00 | 35 | 1015.6 |
| 20260507051040 | 70 | 249 | 12.0 | 15.0 | 0.00 | 0.00 | 0.00 | 35 | 1015.9 |
| 20260507051004 | 71 | 244 | 16.0 | 19.0 | 0.00 | 0.00 | 0.00 | 35 | 1016.0 |
| 20260507050537 | 70 | 239 | 13.0 | 16.0 | 0.00 | 0.00 | 0.00 | 35 | 1015.7 |
| 20260507050504 | 71 | 242 | 15.0 | 19.0 | 0.00 | 0.00 | 0.00 | 35 | 1015.7 |
| 20260507050033 | 70 | 241 | 12.0 | 15.0 | 0.00 | 0.00 | 0.00 | 34 | 1015.5 |
| 20260507050004 | 72 | 243 | 14.0 | 16.0 | 0.00 | 0.00 | 0.00 | 34 | 1015.6 |
| 20260507045530 | 70 | 246 | 12.0 | 13.0 | 0.00 | 0.00 | 0.00 | 34 | 1015.6 |
| 20260507045504 | 72 | 246 | 14.0 | 19.0 | 0.00 | 0.00 | 0.00 | 34 | 1015.6 |
| 20260507045027 | 70 | 242 | 9.0 | 10.0 | 0.00 | 0.00 | 0.00 | 34 | 1015.6 |
| 20260507045004 | 72 | 242 | 15.0 | 19.0 | 0.00 | 0.00 | 0.00 | 34 | 1015.6 |
| 20260507044525 | 72 | 238 | 15.0 | 19.0 | 0.00 | 0.00 | 0.00 | 34 | 1015.6 |
| 20260507044021 | 70 | 259 | 13.0 | 15.0 | 0.00 | 0.00 | 0.00 | 34 | 1015.8 |
| 20260507044003 | 72 | 239 | 14.0 | 19.0 | 0.00 | 0.00 | 0.00 | 34 | 1015.7 |
| 20260507043516 | 70 | 256 | 10.0 | 12.0 | 0.00 | 0.00 | 0.00 | 34 | 1015.5 |
| 20260507043503 | 72 | 240 | 14.0 | 18.0 | 0.00 | 0.00 | 0.00 | 34 | 1015.5 |
| 20260507043014 | 70 | 248 | 13.0 | 13.0 | 0.00 | 0.00 | 0.00 | 34 | 1015.6 |
| 20260507043003 | 72 | 239 | 14.0 | 16.0 | 0.00 | 0.00 | 0.00 | 34 | 1015.6 |
| 20260507042510 | 71 | 250 | 11.0 | 13.0 | 0.00 | 0.00 | 0.00 | 33 | 1015.3 |
| 20260507042503 | 72 | 235 | 15.0 | 18.0 | 0.00 | 0.00 | 0.00 | 33 | 1015.4 |
| 20260507042005 | 71 | 246 | 14.0 | 15.0 | 0.00 | 0.00 | 0.00 | 33 | 1015.3 |
| 20260507042003 | 72 | 236 | 15.0 | 18.0 | 0.00 | 0.00 | 0.00 | 33 | 1015.4 |
| 20260507041504 | 73 | 240 | 15.0 | 19.0 | 0.00 | 0.00 | 0.00 | 33 | 1015.5 |
| 20260507041024 | 73 | 239 | 14.0 | 19.0 | 0.00 | 0.00 | 0.00 | 33 | 1015.5 |
| 20260507041000 | 71 | 230 | 13.0 | 15.0 | 0.00 | 0.00 | 0.00 | 33 | 1015.3 |
| 20260507040503 | 73 | 237 | 12.0 | 15.0 | 0.00 | 0.00 | 0.00 | 33 | 1015.4 |
| 20260507040455 | 71 | 245 | 11.0 | 13.0 | 0.00 | 0.00 | 0.00 | 33 | 1015.5 |
| 20260507040003 | 73 | 235 | 13.0 | 18.0 | 0.00 | 0.00 | 0.00 | 33 | 1015.5 |
| 20260507035951 | 71 | 245 | 12.0 | 13.0 | 0.00 | 0.00 | 0.00 | 33 | 1015.5 |
| 20260507035503 | 74 | 237 | 14.0 | 18.0 | 0.00 | 0.00 | 0.00 | 32 | 1015.4 |
| 20260507035448 | 72 | 247 | 8.0 | 10.0 | 0.00 | 0.00 | 0.00 | 32 | 1015.2 |
| 20260507035003 | 74 | 234 | 13.0 | 18.0 | 0.00 | 0.00 | 0.00 | 32 | 1015.4 |
| 20260507034945 | 72 | 214 | 8.0 | 10.0 | 0.00 | 0.00 | 0.00 | 32 | 1015.1 |
| 20260507034505 | 74 | 240 | 10.0 | 16.0 | 0.00 | 0.00 | 0.00 | 32 | 1015.2 |
| 20260507034442 | 72 | 217 | 9.0 | 12.0 | 0.00 | 0.00 | 0.00 | 31 | 1015.1 |
| 20260507034003 | 74 | 249 | 8.0 | 13.0 | 0.00 | 0.00 | 0.00 | 30 | 1015.0 |
| 20260507033940 | 73 | 252 | 12.0 | 13.0 | 0.00 | 0.00 | 0.00 | 30 | 1014.9 |
| 20260507033503 | 74 | 248 | 5.0 | 7.0 | 0.00 | 0.00 | 0.00 | 28 | 1015.1 |
| 20260507033437 | 72 | 255 | 4.0 | 6.0 | 0.00 | 0.00 | 0.00 | 28 | 1015.1 |
| 20260507033003 | 74 | 257 | 4.0 | 7.0 | 0.00 | 0.00 | 0.00 | 26 | 1015.0 |
| 20260507032934 | 73 | 237 | 4.0 | 5.0 | 0.00 | 0.00 | 0.00 | 24 | 1014.9 |
| 20260507032503 | 76 | 282 | 4.0 | 4.0 | 0.00 | 0.00 | 0.00 | 23 | 1014.7 |
| 20260507032431 | 74 | 260 | 3.0 | 3.0 | 0.00 | 0.00 | 0.00 | 23 | 1014.9 |
| 20260507032003 | 76 | 294 | 4.0 | 6.0 | 0.00 | 0.00 | 0.00 | 23 | 1015.0 |
| 20260507031927 | 74 | 289 | 5.0 | 5.0 | 0.00 | 0.00 | 0.00 | 23 | 1014.9 |
| 20260507031504 | 76 | 300 | 5.0 | 6.0 | 0.00 | 0.00 | 0.00 | 23 | 1014.9 |
| 20260507031426 | 74 | 293 | 3.0 | 5.0 | 0.00 | 0.00 | 0.00 | 23 | 1014.8 |
| 20260507031024 | 76 | 302 | 6.0 | 6.0 | 0.00 | 0.00 | 0.00 | 23 | 1014.9 |
| 20260507030921 | 75 | 306 | 4.0 | 5.0 | 0.00 | 0.00 | 0.00 | 23 | 1014.8 |
| 20260507030503 | 76 | 297 | 5.0 | 6.0 | 0.00 | 0.00 | 0.00 | 23 | 1015.0 |
| 20260507030418 | 75 | 305 | 5.0 | 6.0 | 0.00 | 0.00 | 0.00 | 23 | 1014.7 |
| 20260507030003 | 76 | 297 | 5.0 | 6.0 | 0.00 | 0.00 | 0.00 | 23 | 1014.6 |
| 20260507025915 | 75 | 283 | 5.0 | 5.0 | 0.00 | 0.00 | 0.00 | 23 | 1014.6 |
| 20260507025503 | 77 | 302 | 5.0 | 7.0 | 0.00 | 0.00 | 0.00 | 23 | 1014.6 |
| 20260507025412 | 75 | 293 | 3.0 | 5.0 | 0.00 | 0.00 | 0.00 | 23 | 1014.8 |
| 20260507025003 | 77 | 301 | 6.0 | 7.0 | 0.00 | 0.00 | 0.00 | 23 | 1014.6 |
| 20260507024910 | 75 | 291 | 5.0 | 6.0 | 0.00 | 0.00 | 0.00 | 23 | 1014.6 |
| 20260507024503 | 78 | 297 | 6.0 | 7.0 | 0.00 | 0.00 | 0.00 | 22 | 1014.4 |
| 20260507024407 | 76 | 320 | 6.0 | 7.0 | 0.00 | 0.00 | 0.00 | 22 | 1014.4 |
| 20260507024003 | 78 | 297 | 5.0 | 7.0 | 0.00 | 0.00 | 0.00 | 22 | 1014.4 |
| 20260507023903 | 76 | 308 | 5.0 | 6.0 | 0.00 | 0.00 | 0.00 | 22 | 1014.4 |
| 20260507023503 | 78 | 298 | 4.0 | 6.0 | 0.00 | 0.00 | 0.00 | 22 | 1014.3 |
| 20260507023400 | 76 | 300 | 4.0 | 5.0 | 0.00 | 0.00 | 0.00 | 22 | 1014.5 |
| 20260507023003 | 78 | 294 | 4.0 | 6.0 | 0.00 | 0.00 | 0.00 | 22 | 1014.3 |
| 20260507022857 | 77 | 292 | 3.0 | 3.0 | 0.00 | 0.00 | 0.00 | 22 | 1014.2 |
| 20260507022503 | 79 | 305 | 5.0 | 7.0 | 0.00 | 0.00 | 0.00 | 22 | 1014.3 |
| 20260507022354 | 77 | 287 | 2.0 | 3.0 | 0.00 | 0.00 | 0.00 | 22 | 1014.3 |
| 20260507022024 | 79 | 319 | 6.0 | 7.0 | 0.00 | 0.00 | 0.00 | 22 | 1014.3 |
| 20260507021849 | 77 | 298 | 3.0 | 5.0 | 0.00 | 0.00 | 0.00 | 22 | 1014.3 |
| 20260507021505 | 79 | 334 | 8.0 | 12.0 | 0.00 | 0.00 | 0.00 | 22 | 1014.3 |
| 20260507021345 | 78 | 338 | 7.0 | 7.0 | 0.00 | 0.00 | 0.00 | 22 | 1014.2 |
| 20260507021003 | 79 | 337 | 8.0 | 12.0 | 0.00 | 0.00 | 0.00 | 22 | 1014.2 |
| 20260507020843 | 78 | 334 | 6.0 | 7.0 | 0.00 | 0.00 | 0.00 | 22 | 1014.2 |
| 20260507020503 | 80 | 331 | 7.0 | 10.0 | 0.00 | 0.00 | 0.00 | 22 | 1014.5 |
| 20260507020339 | 78 | 323 | 7.0 | 7.0 | 0.00 | 0.00 | 0.00 | 22 | 1014.3 |
| 20260507020003 | 80 | 315 | 5.0 | 10.0 | 0.00 | 0.00 | 0.00 | 22 | 1014.3 |
| 20260507015836 | 79 | 359 | 6.0 | 7.0 | 0.00 | 0.00 | 0.00 | 22 | 1014.3 |
| 20260507015503 | 81 | 296 | 3.0 | 6.0 | 0.00 | 0.00 | 0.00 | 22 | 1014.1 |
| 20260507015334 | 78 | 274 | 2.0 | 3.0 | 0.00 | 0.00 | 0.00 | 22 | 1014.2 |
| 20260507015004 | 81 | 302 | 4.0 | 7.0 | 0.00 | 0.00 | 0.00 | 22 | 1014.2 |
| 20260507014831 | 79 | 260 | 1.0 | 2.0 | 0.00 | 0.00 | 0.00 | 22 | 1014.0 |
| 20260507014504 | 80 | 315 | 6.0 | 9.0 | 0.00 | 0.00 | 0.00 | 22 | 1014.1 |
| 20260507014327 | 79 | 323 | 5.0 | 5.0 | 0.00 | 0.00 | 0.00 | 22 | 1014.0 |
| 20260507014004 | 80 | 332 | 7.0 | 12.0 | 0.00 | 0.00 | 0.00 | 22 | 1014.1 |
| 20260507013824 | 78 | 334 | 4.0 | 5.0 | 0.00 | 0.00 | 0.00 | 22 | 1014.2 |
| 20260507013503 | 80 | 334 | 9.0 | 16.0 | 0.00 | 0.00 | 0.00 | 22 | 1014.3 |
| 20260507013321 | 78 | 310 | 4.0 | 5.0 | 0.00 | 0.00 | 0.00 | 22 | 1014.3 |
| 20260507013003 | 80 | 344 | 12.0 | 16.0 | 0.00 | 0.00 | 0.00 | 22 | 1014.4 |
| 20260507012819 | 79 | 320 | 6.0 | 7.0 | 0.00 | 0.00 | 0.00 | 22 | 1014.3 |
| 20260507012503 | 80 | 351 | 13.0 | 16.0 | 0.00 | 0.00 | 0.00 | 22 | 1014.3 |
| 20260507012314 | 79 | 356 | 13.0 | 15.0 | 0.00 | 0.00 | 0.00 | 22 | 1014.0 |
| 20260507012003 | 81 | 350 | 11.0 | 16.0 | 0.00 | 0.00 | 0.00 | 22 | 1014.2 |
| 20260507011812 | 79 | 14 | 9.0 | 12.0 | 0.00 | 0.00 | 0.00 | 21 | 1014.2 |
| 20260507011505 | 81 | 332 | 10.0 | 16.0 | 0.00 | 0.00 | 0.00 | 21 | 1014.0 |
| 20260507011309 | 79 | 336 | 6.0 | 9.0 | 0.00 | 0.00 | 0.00 | 21 | 1014.3 |
| 20260507011003 | 81 | 305 | 7.0 | 16.0 | 0.00 | 0.00 | 0.00 | 21 | 1014.1 |
| 20260507010808 | 80 | 307 | 12.0 | 15.0 | 0.00 | 0.00 | 0.00 | 21 | 1014.3 |
| 20260507010503 | 81 | 325 | 7.0 | 13.0 | 0.00 | 0.00 | 0.00 | 21 | 1014.2 |
| 20260507010304 | 79 | 264 | 2.0 | 3.0 | 0.00 | 0.00 | 0.00 | 21 | 1014.0 |
| 20260507010003 | 80 | 324 | 8.0 | 13.0 | 0.00 | 0.00 | 0.00 | 21 | 1014.1 |
| 20260507005802 | 79 | 333 | 6.0 | 6.0 | 0.00 | 0.00 | 0.00 | 21 | 1014.2 |
| 20260507005503 | 81 | 335 | 7.0 | 13.0 | 0.00 | 0.00 | 0.00 | 21 | 1014.2 |
| 20260507005258 | 80 | 282 | 5.0 | 6.0 | 0.00 | 0.00 | 0.00 | 21 | 1014.0 |
| 20260507005003 | 81 | 353 | 7.0 | 15.0 | 0.00 | 0.00 | 0.00 | 21 | 1014.1 |
| 20260507004755 | 79 | 38 | 4.0 | 5.0 | 0.00 | 0.00 | 0.00 | 21 | 1014.2 |
| 20260507004503 | 81 | 345 | 11.0 | 19.0 | 0.00 | 0.00 | 0.00 | 22 | 1014.3 |
| 20260507004252 | 79 | 344 | 7.0 | 7.0 | 0.00 | 0.00 | 0.00 | 22 | 1014.3 |
| 20260507004004 | 81 | 345 | 14.0 | 19.0 | 0.00 | 0.00 | 0.00 | 22 | 1014.1 |
| 20260507003748 | 79 | 335 | 16.0 | 19.0 | 0.00 | 0.00 | 0.00 | 21 | 1014.2 |
| 20260507003503 | 81 | 352 | 14.0 | 21.0 | 0.00 | 0.00 | 0.00 | 21 | 1014.1 |
| 20260507003244 | 79 | 356 | 13.0 | 16.0 | 0.00 | 0.00 | 0.00 | 21 | 1014.0 |
| 20260507003003 | 81 | 7 | 11.0 | 21.0 | 0.00 | 0.00 | 0.00 | 21 | 1014.2 |
| 20260507002740 | 79 | 332 | 7.0 | 9.0 | 0.00 | 0.00 | 0.00 | 21 | 1014.2 |
| 20260507002503 | 81 | 18 | 7.0 | 10.0 | 0.00 | 0.00 | 0.00 | 22 | 1014.2 |
| 20260507002236 | 80 | 43 | 8.0 | 9.0 | 0.00 | 0.00 | 0.00 | 22 | 1013.9 |
| 20260507002003 | 82 | 44 | 6.0 | 10.0 | 0.00 | 0.00 | 0.00 | 21 | 1014.2 |
| 20260507001733 | 80 | 9 | 8.0 | 9.0 | 0.00 | 0.00 | 0.00 | 21 | 1014.0 |
| 20260507001503 | 80 | 87 | 7.0 | 13.0 | 0.00 | 0.00 | 0.00 | 21 | 1014.0 |
| 20260507001231 | 78 | 87 | 7.0 | 7.0 | 0.00 | 0.00 | 0.00 | 21 | 1013.9 |
| 20260507001003 | 80 | 57 | 11.0 | 16.0 | 0.00 | 0.00 | 0.00 | 21 | 1014.0 |
| 20260507000727 | 79 | 71 | 4.0 | 7.0 | 0.00 | 0.00 | 0.00 | 21 | 1014.2 |
| 20260507000504 | 81 | 39 | 12.0 | 16.0 | 0.00 | 0.00 | 0.00 | 21 | 1014.1 |
| 20260507000222 | 79 | 70 | 12.0 | 16.0 | 0.00 | 0.00 | 0.00 | 21 | 1013.9 |
| 20260507000004 | 82 | 29 | 11.0 | 16.0 | 0.00 | 0.00 | 0.00 | 21 | 1014.2 |
| 20260506235720 | 80 | 353 | 3.0 | 6.0 | 0.00 | 0.00 | 0.00 | 20 | 1014.0 |
| 20260506235504 | 82 | 22 | 13.0 | 19.0 | 0.00 | 0.00 | 0.00 | 20 | 1014.0 |
| 20260506235215 | 80 | 26 | 9.0 | 10.0 | 0.00 | 0.00 | 0.00 | 20 | 1014.2 |
| 20260506235004 | 82 | 11 | 13.0 | 19.0 | 0.00 | 0.00 | 0.00 | 20 | 1014.0 |
| 20260506234712 | 80 | 60 | 9.0 | 10.0 | 0.00 | 0.00 | 0.00 | 21 | 1013.9 |
| 20260506234524 | 82 | 2 | 9.0 | 18.0 | 0.00 | 0.00 | 0.00 | 20 | 1014.0 |
| 20260506234209 | 80 | 323 | 5.0 | 9.0 | 0.00 | 0.00 | 0.00 | 22 | 1013.6 |
| 20260506234003 | 81 | 339 | 6.0 | 12.0 | 0.00 | 0.00 | 0.00 | 22 | 1014.0 |
| 20260506233707 | 80 | 274 | 2.0 | 3.0 | 0.00 | 0.00 | 0.00 | 22 | 1014.0 |
| 20260506233526 | 82 | 352 | 7.0 | 12.0 | 0.00 | 0.00 | 0.00 | 22 | 1014.1 |
| 20260506233203 | 79 | 335 | 5.0 | 7.0 | 0.00 | 0.00 | 0.00 | 22 | 1014.0 |
| 20260506233024 | 81 | 18 | 10.0 | 19.0 | 0.00 | 0.00 | 0.00 | 23 | 1014.0 |
| 20260506232659 | 79 | 9 | 5.0 | 6.0 | 0.00 | 0.00 | 0.00 | 23 | 1013.8 |
| 20260506232503 | 81 | 23 | 12.0 | 19.0 | 0.00 | 0.00 | 0.00 | 23 | 1014.1 |
| 20260506232154 | 80 | 18 | 7.0 | 9.0 | 0.00 | 0.00 | 0.00 | 22 | 1014.0 |
| 20260506232003 | 81 | 14 | 9.0 | 15.0 | 0.00 | 0.00 | 0.00 | 22 | 1014.2 |
| 20260506231652 | 79 | 42 | 9.0 | 10.0 | 0.00 | 0.00 | 0.00 | 22 | 1014.2 |
| 20260506231524 | 81 | 30 | 9.0 | 15.0 | 0.00 | 0.00 | 0.00 | 22 | 1014.0 |
| 20260506231151 | 79 | 76 | 3.0 | 5.0 | 0.00 | 0.00 | 0.00 | 22 | 1014.0 |
| 20260506231024 | 80 | 44 | 9.0 | 16.0 | 0.00 | 0.00 | 0.00 | 22 | 1014.2 |
| 20260506230647 | 79 | 44 | 13.0 | 13.0 | 0.00 | 0.00 | 0.00 | 22 | 1014.0 |
| 20260506230504 | 81 | 27 | 8.0 | 16.0 | 0.00 | 0.00 | 0.00 | 22 | 1014.2 |
| 20260506230144 | 80 | 359 | 7.0 | 9.0 | 0.00 | 0.00 | 0.00 | 22 | 1014.4 |
| 20260506230003 | 82 | 37 | 7.0 | 15.0 | 0.00 | 0.00 | 0.00 | 22 | 1014.2 |
| 20260506225640 | 79 | 44 | 7.0 | 7.0 | 0.00 | 0.00 | 0.00 | 23 | 1014.3 |
| 20260506225524 | 81 | 50 | 6.0 | 10.0 | 0.00 | 0.00 | 0.00 | 23 | 1014.3 |
| 20260506225137 | 79 | 108 | 4.0 | 5.0 | 0.00 | 0.00 | 0.00 | 23 | 1014.2 |
| 20260506225003 | 81 | 41 | 7.0 | 10.0 | 0.00 | 0.00 | 0.00 | 23 | 1014.3 |
| 20260506224634 | 79 | 5 | 5.0 | 6.0 | 0.00 | 0.00 | 0.00 | 23 | 1014.5 |
| 20260506224503 | 81 | 49 | 10.0 | 19.0 | 0.00 | 0.00 | 0.00 | 23 | 1014.2 |
| 20260506224130 | 78 | 33 | 7.0 | 9.0 | 0.00 | 0.00 | 0.00 | 24 | 1014.3 |
| 20260506224003 | 80 | 55 | 13.0 | 19.0 | 0.00 | 0.00 | 0.00 | 23 | 1014.3 |
| 20260506223626 | 78 | 40 | 9.0 | 10.0 | 0.00 | 0.00 | 0.00 | 23 | 1014.4 |
| 20260506223504 | 80 | 47 | 13.0 | 19.0 | 0.00 | 0.00 | 0.00 | 23 | 1014.5 |
| 20260506223122 | 78 | 37 | 5.0 | 7.0 | 0.00 | 0.00 | 0.00 | 23 | 1014.3 |
| 20260506223003 | 81 | 25 | 13.0 | 19.0 | 0.00 | 0.00 | 0.00 | 23 | 1014.4 |
| 20260506222620 | 78 | 254 | 7.0 | 7.0 | 0.00 | 0.00 | 0.00 | 25 | 1014.6 |
| 20260506222116 | 78 | 254 | 7.0 | 7.0 | 0.00 | 0.00 | 0.00 | 25 | 1014.6 |
| 20260506222003 | 80 | 322 | 10.0 | 15.0 | 0.00 | 0.00 | 0.00 | 25 | 1014.6 |
| 20260506221614 | 78 | 358 | 6.0 | 7.0 | 0.00 | 0.00 | 0.00 | 24 | 1014.7 |
| 20260506221504 | 79 | 340 | 9.0 | 15.0 | 0.00 | 0.00 | 0.00 | 24 | 1014.6 |
| 20260506221112 | 78 | 334 | 13.0 | 15.0 | 0.00 | 0.00 | 0.00 | 24 | 1014.7 |
| 20260506221003 | 80 | 339 | 11.0 | 18.0 | 0.00 | 0.00 | 0.00 | 24 | 1014.4 |
| 20260506220608 | 78 | 104 | 2.0 | 3.0 | 0.00 | 0.00 | 0.00 | 25 | 1014.9 |
| 20260506220503 | 80 | 341 | 12.0 | 18.0 | 0.00 | 0.00 | 0.00 | 24 | 1015.0 |
| 20260506220003 | 80 | 358 | 9.0 | 16.0 | 0.00 | 0.00 | 0.00 | 24 | 1015.0 |
| 20260506215600 | 79 | 359 | 10.0 | 12.0 | 0.00 | 0.00 | 0.00 | 24 | 1014.8 |
| 20260506215503 | 80 | 8 | 8.0 | 15.0 | 0.00 | 0.00 | 0.00 | 24 | 1014.9 |
| 20260506215055 | 77 | 28 | 2.0 | 3.0 | 0.00 | 0.00 | 0.00 | 25 | 1015.1 |
| 20260506215003 | 79 | 4 | 12.0 | 16.0 | 0.00 | 0.00 | 0.00 | 25 | 1015.2 |
| 20260506214553 | 78 | 341 | 10.0 | 12.0 | 0.00 | 0.00 | 0.00 | 25 | 1015.1 |
| 20260506214503 | 80 | 359 | 13.0 | 19.0 | 0.00 | 0.00 | 0.00 | 25 | 1015.2 |
| 20260506214050 | 77 | 348 | 13.0 | 16.0 | 0.00 | 0.00 | 0.00 | 24 | 1015.1 |
| 20260506214003 | 79 | 359 | 12.0 | 19.0 | 0.00 | 0.00 | 0.00 | 25 | 1015.2 |
| 20260506213548 | 78 | 66 | 6.0 | 9.0 | 0.00 | 0.00 | 0.00 | 25 | 1014.9 |
| 20260506213505 | 80 | 3 | 11.0 | 19.0 | 0.00 | 0.00 | 0.00 | 25 | 1015.0 |
| 20260506213045 | 78 | 353 | 16.0 | 18.0 | 0.00 | 0.00 | 0.00 | 25 | 1015.2 |
| 20260506213003 | 80 | 354 | 10.0 | 19.0 | 0.00 | 0.00 | 0.00 | 25 | 1015.3 |
| 20260506212542 | 77 | 3 | 9.0 | 10.0 | 0.00 | 0.00 | 0.00 | 25 | 1015.0 |
| 20260506212503 | 79 | 343 | 10.0 | 19.0 | 0.00 | 0.00 | 0.00 | 25 | 1015.1 |
| 20260506212037 | 77 | 19 | 5.0 | 7.0 | 0.00 | 0.00 | 0.00 | 25 | 1015.5 |
| 20260506212024 | 79 | 331 | 9.0 | 13.0 | 0.00 | 0.00 | 0.00 | 25 | 1015.5 |
| 20260506211533 | 77 | 332 | 11.0 | 12.0 | 0.00 | 0.00 | 0.00 | 25 | 1015.5 |
| 20260506211503 | 79 | 344 | 7.0 | 13.0 | 0.00 | 0.00 | 0.00 | 25 | 1015.5 |
| 20260506211030 | 78 | 91 | 5.0 | 7.0 | 0.00 | 0.00 | 0.00 | 25 | 1015.3 |
| 20260506211003 | 80 | 42 | 5.0 | 7.0 | 0.00 | 0.00 | 0.00 | 25 | 1015.4 |
| 20260506210526 | 77 | 46 | 5.0 | 6.0 | 0.00 | 0.00 | 0.00 | 25 | 1015.5 |
| 20260506210504 | 79 | 19 | 7.0 | 13.0 | 0.00 | 0.00 | 0.00 | 25 | 1015.5 |
| 20260506210023 | 76 | 49 | 4.0 | 6.0 | 0.00 | 0.00 | 0.00 | 25 | 1015.5 |
| 20260506210003 | 78 | 336 | 10.0 | 16.0 | 0.00 | 0.00 | 0.00 | 25 | 1015.5 |
| 20260506205520 | 76 | 347 | 9.0 | 12.0 | 0.00 | 0.00 | 0.00 | 26 | 1015.5 |
| 20260506205503 | 78 | 325 | 11.0 | 16.0 | 0.00 | 0.00 | 0.00 | 26 | 1015.5 |
| 20260506205015 | 77 | 344 | 6.0 | 7.0 | 0.00 | 0.00 | 0.00 | 25 | 1015.6 |
| 20260506205003 | 78 | 328 | 10.0 | 13.0 | 0.00 | 0.00 | 0.00 | 25 | 1015.6 |
| 20260506204514 | 76 | 337 | 8.0 | 9.0 | 0.00 | 0.00 | 0.00 | 26 | 1015.6 |
| 20260506204503 | 78 | 326 | 10.0 | 16.0 | 0.00 | 0.00 | 0.00 | 26 | 1015.6 |
| 20260506204010 | 76 | 300 | 8.0 | 10.0 | 0.00 | 0.00 | 0.00 | 26 | 1015.8 |
| 20260506204003 | 78 | 20 | 9.0 | 16.0 | 0.00 | 0.00 | 0.00 | 26 | 1015.7 |
| 20260506203508 | 75 | 48 | 6.0 | 7.0 | 0.00 | 0.00 | 0.00 | 25 | 1015.8 |
| 20260506203024 | 78 | 105 | 7.0 | 12.0 | 0.00 | 0.00 | 0.00 | 26 | 1015.6 |
| 20260506203004 | 76 | 58 | 8.0 | 9.0 | 0.00 | 0.00 | 0.00 | 26 | 1015.6 |
| 20260506202503 | 77 | 86 | 9.0 | 15.0 | 0.00 | 0.00 | 0.00 | 26 | 1015.4 |
| 20260506202003 | 76 | 37 | 10.0 | 16.0 | 0.00 | 0.00 | 0.00 | 27 | 1015.8 |
| 20260506201958 | 74 | 73 | 7.0 | 7.0 | 0.00 | 0.00 | 0.00 | 27 | 1015.7 |
| 20260506201503 | 77 | 336 | 10.0 | 16.0 | 0.00 | 0.00 | 0.00 | 27 | 1016.0 |
| 20260506201456 | 75 | 59 | 8.0 | 10.0 | 0.00 | 0.00 | 0.00 | 26 | 1015.8 |
| 20260506201024 | 76 | 331 | 10.0 | 16.0 | 0.00 | 0.00 | 0.00 | 26 | 1016.1 |
| 20260506200952 | 75 | 310 | 10.0 | 12.0 | 0.00 | 0.00 | 0.00 | 26 | 1015.9 |
| 20260506200504 | 77 | 351 | 10.0 | 16.0 | 0.00 | 0.00 | 0.00 | 26 | 1016.2 |
| 20260506200449 | 76 | 336 | 12.0 | 15.0 | 0.00 | 0.00 | 0.00 | 26 | 1016.0 |
| 20260506200003 | 77 | 9 | 9.0 | 13.0 | 0.00 | 0.00 | 0.00 | 26 | 1016.1 |
| 20260506195945 | 75 | 10 | 9.0 | 12.0 | 0.00 | 0.00 | 0.00 | 26 | 1016.0 |
| 20260506195503 | 76 | 51 | 9.0 | 13.0 | 0.00 | 0.00 | 0.00 | 27 | 1016.1 |
| 20260506195442 | 74 | 336 | 5.0 | 9.0 | 0.00 | 0.00 | 0.00 | 27 | 1016.1 |
| 20260506195024 | 76 | 59 | 8.0 | 12.0 | 0.00 | 0.00 | 0.00 | 27 | 1016.2 |
| 20260506194938 | 74 | 62 | 9.0 | 10.0 | 0.00 | 0.00 | 0.00 | 27 | 1016.0 |
| 20260506194503 | 77 | 16 | 9.0 | 15.0 | 0.00 | 0.00 | 0.00 | 26 | 1016.3 |
| 20260506194436 | 75 | 18 | 5.0 | 6.0 | 0.00 | 0.00 | 0.00 | 26 | 1016.2 |
| 20260506194024 | 77 | 12 | 11.0 | 15.0 | 0.00 | 0.00 | 0.00 | 27 | 1016.4 |
| 20260506193933 | 75 | 6 | 11.0 | 13.0 | 0.00 | 0.00 | 0.00 | 26 | 1016.1 |
| 20260506193504 | 76 | 14 | 11.0 | 15.0 | 0.00 | 0.00 | 0.00 | 26 | 1016.2 |
| 20260506193430 | 74 | 43 | 9.0 | 12.0 | 0.00 | 0.00 | 0.00 | 27 | 1016.0 |
| 20260506193003 | 75 | 15 | 10.0 | 15.0 | 0.00 | 0.00 | 0.00 | 28 | 1016.3 |
| 20260506192926 | 73 | 34 | 5.0 | 6.0 | 0.00 | 0.00 | 0.00 | 28 | 1016.3 |
| 20260506192524 | 76 | 359 | 7.0 | 12.0 | 0.00 | 0.00 | 0.00 | 27 | 1016.3 |
| 20260506192423 | 74 | 334 | 9.0 | 10.0 | 0.00 | 0.00 | 0.00 | 27 | 1016.2 |
| 20260506192003 | 75 | 350 | 7.0 | 15.0 | 0.00 | 0.00 | 0.00 | 27 | 1016.3 |
| 20260506191920 | 74 | 305 | 7.0 | 9.0 | 0.00 | 0.00 | 0.00 | 27 | 1016.3 |
| 20260506191503 | 75 | 333 | 9.0 | 16.0 | 0.00 | 0.00 | 0.00 | 27 | 1016.4 |
| 20260506191417 | 73 | 351 | 7.0 | 9.0 | 0.00 | 0.00 | 0.00 | 28 | 1016.3 |
| 20260506191003 | 75 | 337 | 10.0 | 16.0 | 0.00 | 0.00 | 0.00 | 27 | 1016.4 |
| 20260506190914 | 73 | 342 | 6.0 | 7.0 | 0.00 | 0.00 | 0.00 | 28 | 1016.4 |
| 20260506190503 | 74 | 350 | 13.0 | 18.0 | 0.00 | 0.00 | 0.00 | 28 | 1016.5 |
| 20260506190410 | 73 | 358 | 8.0 | 10.0 | 0.00 | 0.00 | 0.00 | 28 | 1016.4 |
| 20260506190005 | 74 | 3 | 13.0 | 18.0 | 0.00 | 0.00 | 0.00 | 28 | 1016.5 |
| 20260506185907 | 73 | 7 | 12.0 | 15.0 | 0.00 | 0.00 | 0.00 | 28 | 1016.4 |
| 20260506185504 | 74 | 15 | 11.0 | 18.0 | 0.00 | 0.00 | 0.00 | 28 | 1016.6 |
| 20260506185404 | 72 | 352 | 13.0 | 18.0 | 0.00 | 0.00 | 0.00 | 27 | 1016.5 |
| 20260506185003 | 74 | 5 | 9.0 | 16.0 | 0.00 | 0.00 | 0.00 | 29 | 1016.6 |
| 20260506184901 | 72 | 11 | 11.0 | 13.0 | 0.00 | 0.00 | 0.00 | 29 | 1016.6 |
| 20260506184504 | 74 | 357 | 8.0 | 13.0 | 0.00 | 0.00 | 0.00 | 29 | 1016.6 |
| 20260506184358 | 72 | 341 | 7.0 | 9.0 | 0.00 | 0.00 | 0.00 | 29 | 1016.4 |
| 20260506184003 | 74 | 10 | 10.0 | 13.0 | 0.00 | 0.00 | 0.00 | 29 | 1016.7 |
| 20260506183855 | 72 | 351 | 11.0 | 13.0 | 0.00 | 0.00 | 0.00 | 28 | 1016.6 |
| 20260506183504 | 73 | 10 | 9.0 | 13.0 | 0.00 | 0.00 | 0.00 | 29 | 1016.6 |
| 20260506183350 | 72 | 23 | 5.0 | 6.0 | 0.00 | 0.00 | 0.00 | 29 | 1016.5 |
| 20260506183025 | 73 | 355 | 9.0 | 13.0 | 0.00 | 0.00 | 0.00 | 30 | 1016.7 |
| 20260506182848 | 72 | 15 | 9.0 | 10.0 | 0.00 | 0.00 | 0.00 | 30 | 1016.6 |
| 20260506182503 | 73 | 339 | 9.0 | 15.0 | 0.00 | 0.00 | 0.00 | 29 | 1016.5 |
| 20260506182345 | 71 | 284 | 6.0 | 7.0 | 0.00 | 0.00 | 0.00 | 29 | 1016.6 |
| 20260506182003 | 74 | 339 | 9.0 | 16.0 | 0.00 | 0.00 | 0.00 | 29 | 1016.7 |
| 20260506181842 | 70 | 2 | 12.0 | 15.0 | 0.00 | 0.00 | 0.00 | 29 | 1016.6 |
| 20260506181503 | 72 | 339 | 9.0 | 16.0 | 0.00 | 0.00 | 0.00 | 30 | 1016.8 |
| 20260506181340 | 70 | 314 | 12.0 | 13.0 | 0.00 | 0.00 | 0.00 | 30 | 1016.9 |
| 20260506181003 | 73 | 346 | 10.0 | 16.0 | 0.00 | 0.00 | 0.00 | 30 | 1016.8 |
| 20260506180837 | 70 | 322 | 8.0 | 10.0 | 0.00 | 0.00 | 0.00 | 30 | 1016.6 |
| 20260506180503 | 72 | 335 | 11.0 | 16.0 | 0.00 | 0.00 | 0.00 | 30 | 1016.7 |
| 20260506180333 | 70 | 324 | 9.0 | 10.0 | 0.00 | 0.00 | 0.00 | 31 | 1016.4 |
| 20260506180004 | 71 | 316 | 12.0 | 15.0 | 0.00 | 0.00 | 0.00 | 31 | 1016.7 |
| 20260506175829 | 69 | 298 | 9.0 | 10.0 | 0.00 | 0.00 | 0.00 | 31 | 1016.6 |
| 20260506175503 | 71 | 325 | 12.0 | 16.0 | 0.00 | 0.00 | 0.00 | 32 | 1016.8 |
| 20260506175327 | 69 | 330 | 13.0 | 15.0 | 0.00 | 0.00 | 0.00 | 32 | 1016.8 |
| 20260506175003 | 71 | 336 | 12.0 | 16.0 | 0.00 | 0.00 | 0.00 | 32 | 1016.7 |
| 20260506174824 | 69 | 345 | 5.0 | 6.0 | 0.00 | 0.00 | 0.00 | 32 | 1016.5 |
| 20260506174503 | 70 | 335 | 14.0 | 18.0 | 0.00 | 0.00 | 0.00 | 33 | 1016.7 |
| 20260506174321 | 68 | 323 | 12.0 | 13.0 | 0.00 | 0.00 | 0.00 | 33 | 1016.8 |
| 20260506174003 | 70 | 341 | 14.0 | 18.0 | 0.00 | 0.00 | 0.00 | 32 | 1016.7 |
| 20260506173818 | 69 | 334 | 10.0 | 12.0 | 0.00 | 0.00 | 0.00 | 32 | 1016.6 |
| 20260506173503 | 70 | 340 | 14.0 | 18.0 | 0.00 | 0.00 | 0.00 | 32 | 1016.7 |
| 20260506173315 | 68 | 335 | 10.0 | 12.0 | 0.00 | 0.00 | 0.00 | 33 | 1016.8 |
| 20260506173025 | 70 | 339 | 15.0 | 18.0 | 0.00 | 0.00 | 0.00 | 34 | 1016.8 |
| 20260506172812 | 68 | 292 | 10.0 | 15.0 | 0.00 | 0.00 | 0.00 | 33 | 1016.8 |
| 20260506172503 | 69 | 333 | 14.0 | 19.0 | 0.00 | 0.00 | 0.00 | 33 | 1016.8 |
| 20260506172309 | 67 | 336 | 13.0 | 15.0 | 0.00 | 0.00 | 0.00 | 34 | 1016.6 |
| 20260506172003 | 68 | 332 | 13.0 | 19.0 | 0.00 | 0.00 | 0.00 | 34 | 1016.8 |
| 20260506171806 | 66 | 314 | 11.0 | 15.0 | 0.00 | 0.00 | 0.00 | 35 | 1016.5 |
| 20260506171503 | 69 | 331 | 14.0 | 18.0 | 0.00 | 0.00 | 0.00 | 34 | 1016.7 |
| 20260506171303 | 67 | 338 | 16.0 | 18.0 | 0.00 | 0.00 | 0.00 | 35 | 1016.5 |
| 20260506171003 | 68 | 327 | 16.0 | 19.0 | 0.00 | 0.00 | 0.00 | 36 | 1016.6 |
| 20260506170801 | 65 | 310 | 10.0 | 12.0 | 0.00 | 0.00 | 0.00 | 36 | 1016.4 |
| 20260506170504 | 68 | 325 | 17.0 | 19.0 | 0.00 | 0.00 | 0.00 | 36 | 1016.5 |
| 20260506170257 | 66 | 325 | 15.0 | 18.0 | 0.00 | 0.00 | 0.00 | 35 | 1016.4 |
| 20260506170005 | 68 | 322 | 16.0 | 19.0 | 0.00 | 0.00 | 0.00 | 35 | 1016.5 |
| 20260506165756 | 66 | 320 | 17.0 | 18.0 | 0.00 | 0.00 | 0.00 | 35 | 1016.4 |
| 20260506165504 | 68 | 322 | 16.0 | 19.0 | 0.00 | 0.00 | 0.00 | 36 | 1016.4 |
| 20260506165253 | 66 | 336 | 10.0 | 13.0 | 0.00 | 0.00 | 0.00 | 36 | 1016.4 |
| 20260506165004 | 68 | 325 | 16.0 | 19.0 | 0.00 | 0.00 | 0.00 | 35 | 1016.4 |
| 20260506164749 | 65 | 344 | 14.0 | 16.0 | 0.00 | 0.00 | 0.00 | 37 | 1016.4 |
| 20260506164504 | 67 | 331 | 17.0 | 19.0 | 0.00 | 0.00 | 0.00 | 37 | 1016.5 |
| 20260506164246 | 65 | 321 | 15.0 | 16.0 | 0.00 | 0.00 | 0.00 | 36 | 1016.3 |
| 20260506164025 | 67 | 328 | 16.0 | 19.0 | 0.00 | 0.00 | 0.00 | 37 | 1016.5 |
| 20260506163743 | 65 | 327 | 14.0 | 18.0 | 0.00 | 0.00 | 0.00 | 36 | 1016.4 |
| 20260506163503 | 67 | 325 | 15.0 | 19.0 | 0.00 | 0.00 | 0.00 | 36 | 1016.4 |
| 20260506163238 | 65 | 318 | 15.0 | 18.0 | 0.00 | 0.00 | 0.00 | 37 | 1016.3 |
| 20260506163005 | 66 | 322 | 15.0 | 19.0 | 0.00 | 0.00 | 0.00 | 37 | 1016.3 |
| 20260506162734 | 64 | 290 | 13.0 | 18.0 | 0.00 | 0.00 | 0.00 | 38 | 1016.2 |
| 20260506162503 | 66 | 318 | 16.0 | 19.0 | 0.00 | 0.00 | 0.00 | 39 | 1016.3 |
| 20260506162232 | 63 | 325 | 17.0 | 19.0 | 0.00 | 0.00 | 0.00 | 38 | 1016.4 |
| 20260506162024 | 65 | 324 | 16.0 | 19.0 | 0.00 | 0.00 | 0.00 | 40 | 1016.4 |
| 20260506161729 | 63 | 305 | 15.0 | 18.0 | 0.00 | 0.00 | 0.00 | 40 | 1016.3 |
| 20260506161524 | 65 | 329 | 16.0 | 19.0 | 0.00 | 0.00 | 0.00 | 41 | 1016.2 |
| 20260506161226 | 63 | 331 | 14.0 | 18.0 | 0.00 | 0.00 | 0.00 | 40 | 1016.2 |
| 20260506161003 | 65 | 333 | 15.0 | 18.0 | 0.00 | 0.00 | 0.00 | 40 | 1016.3 |
| 20260506160724 | 62 | 338 | 12.0 | 13.0 | 0.00 | 0.00 | 0.00 | 41 | 1016.3 |
| 20260506160503 | 64 | 331 | 14.0 | 18.0 | 0.00 | 0.00 | 0.00 | 41 | 1016.3 |
| 20260506160220 | 62 | 332 | 10.0 | 13.0 | 0.00 | 0.00 | 0.00 | 41 | 1016.2 |
| 20260506160004 | 64 | 321 | 14.0 | 18.0 | 0.00 | 0.00 | 0.00 | 42 | 1016.2 |
| 20260506155719 | 62 | 346 | 6.0 | 9.0 | 0.00 | 0.00 | 0.00 | 42 | 1016.2 |
| 20260506155524 | 64 | 316 | 13.0 | 16.0 | 0.00 | 0.00 | 0.00 | 42 | 1016.1 |
| 20260506155216 | 62 | 336 | 10.0 | 12.0 | 0.00 | 0.00 | 0.00 | 41 | 1016.3 |
| 20260506155003 | 64 | 317 | 13.0 | 16.0 | 0.00 | 0.00 | 0.00 | 40 | 1016.1 |
| 20260506154503 | 63 | 306 | 13.0 | 16.0 | 0.00 | 0.00 | 0.00 | 42 | 1016.2 |
| 20260506154024 | 63 | 302 | 13.0 | 15.0 | 0.00 | 0.00 | 0.00 | 42 | 1016.1 |
| 20260506153503 | 62 | 308 | 13.0 | 18.0 | 0.00 | 0.00 | 0.00 | 43 | 1016.2 |
| 20260506153323 | 60 | 297 | 12.0 | 13.0 | 0.00 | 0.00 | 0.00 | 43 | 1016.1 |
| 20260506153025 | 62 | 312 | 12.0 | 18.0 | 0.00 | 0.00 | 0.00 | 43 | 1016.1 |
| 20260506152820 | 61 | 326 | 13.0 | 16.0 | 0.00 | 0.00 | 0.00 | 43 | 1016.0 |
| 20260506152503 | 62 | 309 | 12.0 | 15.0 | 0.00 | 0.00 | 0.00 | 44 | 1016.0 |
| 20260506152317 | 60 | 324 | 10.0 | 12.0 | 0.00 | 0.00 | 0.00 | 44 | 1016.1 |
| 20260506152003 | 62 | 309 | 11.0 | 15.0 | 0.00 | 0.00 | 0.00 | 44 | 1016.1 |
| 20260506151816 | 60 | 309 | 11.0 | 12.0 | 0.00 | 0.00 | 0.00 | 44 | 1016.1 |
| 20260506151503 | 61 | 308 | 11.0 | 15.0 | 0.00 | 0.00 | 0.00 | 44 | 1016.2 |
| 20260506151312 | 59 | 312 | 11.0 | 12.0 | 0.00 | 0.00 | 0.00 | 45 | 1016.0 |
| 20260506151024 | 61 | 304 | 11.0 | 13.0 | 0.00 | 0.00 | 0.00 | 45 | 1016.4 |
| 20260506150809 | 59 | 320 | 7.0 | 7.0 | 0.00 | 0.00 | 0.00 | 46 | 1016.0 |
| 20260506150503 | 61 | 300 | 12.0 | 15.0 | 0.00 | 0.00 | 0.00 | 45 | 1016.1 |
| 20260506150306 | 59 | 300 | 11.0 | 13.0 | 0.00 | 0.00 | 0.00 | 46 | 1016.0 |
| 20260506150005 | 60 | 301 | 12.0 | 15.0 | 0.00 | 0.00 | 0.00 | 47 | 1016.0 |
| 20260506145803 | 58 | 296 | 7.0 | 9.0 | 0.00 | 0.00 | 0.00 | 48 | 1016.1 |
| 20260506145503 | 60 | 305 | 11.0 | 15.0 | 0.00 | 0.00 | 0.00 | 48 | 1016.2 |
| 20260506145259 | 58 | 297 | 11.0 | 12.0 | 0.00 | 0.00 | 0.00 | 48 | 1016.2 |
| 20260506145003 | 59 | 311 | 13.0 | 18.0 | 0.00 | 0.00 | 0.00 | 48 | 1016.3 |
| 20260506144757 | 57 | 291 | 7.0 | 7.0 | 0.00 | 0.00 | 0.00 | 50 | 1016.1 |
| 20260506144503 | 59 | 312 | 14.0 | 18.0 | 0.00 | 0.00 | 0.00 | 49 | 1016.2 |
| 20260506144254 | 57 | 321 | 11.0 | 15.0 | 0.00 | 0.00 | 0.00 | 49 | 1015.9 |
| 20260506144003 | 58 | 303 | 13.0 | 16.0 | 0.00 | 0.00 | 0.00 | 50 | 1016.2 |
| 20260506143752 | 57 | 308 | 9.0 | 13.0 | 0.00 | 0.00 | 0.00 | 50 | 1016.2 |
| 20260506143524 | 58 | 303 | 14.0 | 18.0 | 0.00 | 0.00 | 0.00 | 50 | 1016.0 |
| 20260506143248 | 56 | 284 | 10.0 | 12.0 | 0.00 | 0.00 | 0.00 | 51 | 1015.9 |
| 20260506143003 | 58 | 306 | 14.0 | 18.0 | 0.00 | 0.00 | 0.00 | 51 | 1016.0 |
| 20260506142747 | 56 | 305 | 14.0 | 15.0 | 0.00 | 0.00 | 0.00 | 51 | 1016.0 |
| 20260506142503 | 58 | 305 | 15.0 | 19.0 | 0.00 | 0.00 | 0.00 | 51 | 1016.2 |
| 20260506142245 | 56 | 299 | 14.0 | 16.0 | 0.00 | 0.00 | 0.00 | 52 | 1016.0 |
| 20260506142003 | 57 | 303 | 14.0 | 19.0 | 0.00 | 0.00 | 0.00 | 52 | 1016.2 |
| 20260506141743 | 55 | 303 | 11.0 | 12.0 | 0.00 | 0.00 | 0.00 | 52 | 1015.9 |
| 20260506141524 | 57 | 307 | 13.0 | 18.0 | 0.00 | 0.00 | 0.00 | 53 | 1016.0 |
| 20260506141241 | 55 | 291 | 11.0 | 13.0 | 0.00 | 0.00 | 0.00 | 54 | 1015.9 |
| 20260506141003 | 56 | 312 | 11.0 | 15.0 | 0.00 | 0.00 | 0.00 | 54 | 1016.1 |
| 20260506140738 | 54 | 326 | 8.0 | 9.0 | 0.00 | 0.00 | 0.00 | 54 | 1015.8 |
| 20260506140503 | 56 | 309 | 12.0 | 15.0 | 0.00 | 0.00 | 0.00 | 54 | 1016.0 |
| 20260506140235 | 54 | 311 | 10.0 | 12.0 | 0.00 | 0.00 | 0.00 | 55 | 1015.8 |
| 20260506140003 | 55 | 314 | 11.0 | 15.0 | 0.00 | 0.00 | 0.00 | 56 | 1015.7 |
| 20260506135732 | 53 | 323 | 8.0 | 10.0 | 0.00 | 0.00 | 0.00 | 56 | 1015.6 |
| 20260506135504 | 55 | 317 | 10.0 | 13.0 | 0.00 | 0.00 | 0.00 | 56 | 1015.8 |
| 20260506135228 | 53 | 344 | 7.0 | 9.0 | 0.00 | 0.00 | 0.00 | 56 | 1015.7 |
| 20260506135004 | 54 | 315 | 10.0 | 13.0 | 0.00 | 0.00 | 0.00 | 57 | 1015.5 |
| 20260506134725 | 52 | 305 | 7.0 | 7.0 | 0.00 | 0.00 | 0.00 | 57 | 1015.6 |
| 20260506134504 | 54 | 310 | 8.0 | 12.0 | 0.00 | 0.00 | 0.00 | 58 | 1015.6 |
| 20260506134221 | 52 | 312 | 7.0 | 7.0 | 0.00 | 0.00 | 0.00 | 58 | 1015.3 |
| 20260506134003 | 54 | 306 | 7.0 | 9.0 | 0.00 | 0.00 | 0.00 | 58 | 1015.6 |
| 20260506133719 | 52 | 306 | 8.0 | 9.0 | 0.00 | 0.00 | 0.00 | 58 | 1015.6 |
| 20260506133505 | 54 | 304 | 7.0 | 9.0 | 0.00 | 0.00 | 0.00 | 58 | 1015.5 |
| 20260506133215 | 52 | 310 | 5.0 | 6.0 | 0.00 | 0.00 | 0.00 | 59 | 1015.3 |
| 20260506133003 | 53 | 300 | 8.0 | 9.0 | 0.00 | 0.00 | 0.00 | 59 | 1015.5 |
| 20260506132712 | 51 | 289 | 7.0 | 7.0 | 0.00 | 0.00 | 0.00 | 59 | 1015.5 |
| 20260506132503 | 53 | 302 | 8.0 | 10.0 | 0.00 | 0.00 | 0.00 | 59 | 1015.3 |
| 20260506132209 | 51 | 302 | 6.0 | 7.0 | 0.00 | 0.00 | 0.00 | 59 | 1015.3 |
| 20260506132003 | 53 | 299 | 8.0 | 10.0 | 0.00 | 0.00 | 0.00 | 60 | 1015.4 |
| 20260506131707 | 51 | 306 | 7.0 | 7.0 | 0.00 | 0.00 | 0.00 | 60 | 1015.2 |
| 20260506131503 | 53 | 293 | 9.0 | 10.0 | 0.00 | 0.00 | 0.00 | 60 | 1015.4 |
| 20260506131203 | 51 | 299 | 10.0 | 10.0 | 0.00 | 0.00 | 0.00 | 60 | 1015.3 |
| 20260506131003 | 53 | 294 | 9.0 | 16.0 | 0.00 | 0.00 | 0.00 | 60 | 1015.2 |
| 20260506130700 | 51 | 287 | 7.0 | 9.0 | 0.00 | 0.00 | 0.00 | 59 | 1015.2 |
| 20260506130503 | 53 | 295 | 10.0 | 16.0 | 0.00 | 0.00 | 0.00 | 59 | 1015.2 |
| 20260506130157 | 51 | 301 | 9.0 | 10.0 | 0.00 | 0.00 | 0.00 | 60 | 1015.1 |
| 20260506130003 | 53 | 297 | 10.0 | 15.0 | 0.00 | 0.00 | 0.00 | 59 | 1015.1 |
| 20260506125655 | 51 | 310 | 8.0 | 9.0 | 0.00 | 0.00 | 0.00 | 60 | 1015.0 |
| 20260506125503 | 53 | 302 | 11.0 | 16.0 | 0.00 | 0.00 | 0.00 | 60 | 1015.2 |
| 20260506125153 | 51 | 312 | 8.0 | 10.0 | 0.00 | 0.00 | 0.00 | 59 | 1015.0 |
| 20260506125003 | 53 | 308 | 14.0 | 18.0 | 0.00 | 0.00 | 0.00 | 59 | 1015.1 |
| 20260506124650 | 52 | 304 | 14.0 | 16.0 | 0.00 | 0.00 | 0.00 | 58 | 1015.0 |
| 20260506124524 | 53 | 310 | 15.0 | 21.0 | 0.00 | 0.00 | 0.00 | 58 | 1015.1 |
| 20260506124148 | 52 | 305 | 13.0 | 18.0 | 0.00 | 0.00 | 0.00 | 58 | 1014.7 |
| 20260506124003 | 54 | 306 | 16.0 | 21.0 | 0.00 | 0.00 | 0.00 | 58 | 1014.7 |
| 20260506123645 | 52 | 304 | 14.0 | 18.0 | 0.00 | 0.00 | 0.00 | 57 | 1014.8 |
| 20260506123504 | 54 | 306 | 16.0 | 21.0 | 0.00 | 0.00 | 0.00 | 57 | 1014.9 |
| 20260506123144 | 52 | 297 | 12.0 | 15.0 | 0.00 | 0.00 | 0.00 | 58 | 1014.7 |
| 20260506123003 | 53 | 309 | 16.0 | 19.0 | 0.00 | 0.00 | 0.00 | 58 | 1014.7 |
| 20260506122640 | 52 | 311 | 13.0 | 16.0 | 0.00 | 0.00 | 0.00 | 58 | 1014.8 |
| 20260506122503 | 54 | 310 | 16.0 | 19.0 | 0.00 | 0.00 | 0.00 | 58 | 1014.7 |
| 20260506122138 | 52 | 308 | 15.0 | 18.0 | 0.00 | 0.00 | 0.00 | 58 | 1014.7 |
| 20260506122004 | 53 | 314 | 16.0 | 21.0 | 0.00 | 0.00 | 0.00 | 58 | 1014.9 |
| 20260506121635 | 52 | 325 | 14.0 | 18.0 | 0.00 | 0.00 | 0.00 | 58 | 1014.5 |
| 20260506121504 | 54 | 321 | 16.0 | 21.0 | 0.00 | 0.00 | 0.00 | 58 | 1014.6 |
| 20260506121131 | 52 | 285 | 14.0 | 15.0 | 0.00 | 0.00 | 0.00 | 58 | 1014.6 |
| 20260506121004 | 54 | 323 | 16.0 | 21.0 | 0.00 | 0.00 | 0.00 | 58 | 1014.6 |
| 20260506120630 | 52 | 340 | 13.0 | 13.0 | 0.00 | 0.00 | 0.00 | 58 | 1014.7 |
| 20260506120505 | 54 | 320 | 18.0 | 21.0 | 0.00 | 0.00 | 0.00 | 58 | 1014.9 |
| 20260506120127 | 52 | 318 | 13.0 | 15.0 | 0.00 | 0.00 | 0.00 | 57 | 1014.6 |
| 20260506120025 | 54 | 317 | 18.0 | 22.0 | 0.00 | 0.00 | 0.00 | 57 | 1014.5 |
| 20260506115625 | 52 | 318 | 14.0 | 19.0 | 0.00 | 0.00 | 0.00 | 57 | 1014.4 |
| 20260506115503 | 54 | 318 | 19.0 | 22.0 | 0.00 | 0.00 | 0.00 | 57 | 1014.7 |
| 20260506115123 | 52 | 322 | 16.0 | 19.0 | 0.00 | 0.00 | 0.00 | 57 | 1014.6 |
| 20260506115003 | 54 | 316 | 18.0 | 22.0 | 0.00 | 0.00 | 0.00 | 57 | 1014.6 |
| 20260506114620 | 52 | 325 | 17.0 | 21.0 | 0.00 | 0.00 | 0.00 | 56 | 1014.6 |
| 20260506114503 | 54 | 319 | 16.0 | 21.0 | 0.00 | 0.00 | 0.00 | 57 | 1014.6 |
| 20260506114118 | 52 | 321 | 17.0 | 19.0 | 0.00 | 0.00 | 0.00 | 57 | 1014.7 |
| 20260506114024 | 54 | 317 | 15.0 | 19.0 | 0.00 | 0.00 | 0.00 | 57 | 1014.7 |
| 20260506113616 | 52 | 311 | 10.0 | 10.0 | 0.00 | 0.00 | 0.00 | 57 | 1014.7 |
| 20260506113504 | 54 | 313 | 15.0 | 18.0 | 0.00 | 0.00 | 0.00 | 57 | 1014.6 |
| 20260506113113 | 52 | 310 | 10.0 | 13.0 | 0.00 | 0.00 | 0.00 | 56 | 1014.4 |
| 20260506113024 | 54 | 311 | 15.0 | 18.0 | 0.00 | 0.00 | 0.00 | 56 | 1014.4 |
| 20260506112609 | 52 | 311 | 15.0 | 16.0 | 0.00 | 0.00 | 0.00 | 56 | 1014.6 |
| 20260506112503 | 54 | 309 | 14.0 | 18.0 | 0.00 | 0.00 | 0.00 | 56 | 1014.5 |
| 20260506112107 | 52 | 314 | 13.0 | 15.0 | 0.00 | 0.00 | 0.00 | 56 | 1014.6 |
| 20260506112003 | 54 | 308 | 13.0 | 16.0 | 0.00 | 0.00 | 0.00 | 56 | 1014.6 |
| 20260506111604 | 52 | 330 | 10.0 | 12.0 | 0.00 | 0.00 | 0.00 | 56 | 1014.6 |
| 20260506111504 | 54 | 308 | 13.0 | 15.0 | 0.00 | 0.00 | 0.00 | 56 | 1014.6 |
| 20260506111102 | 52 | 297 | 10.0 | 12.0 | 0.00 | 0.00 | 0.00 | 56 | 1014.4 |
| 20260506111003 | 54 | 310 | 16.0 | 22.0 | 0.00 | 0.00 | 0.00 | 56 | 1014.4 |
| 20260506110559 | 53 | 294 | 17.0 | 18.0 | 0.00 | 0.00 | 0.00 | 55 | 1014.3 |
| 20260506110505 | 54 | 313 | 18.0 | 22.0 | 0.00 | 0.00 | 0.00 | 55 | 1014.3 |
| 20260506110056 | 53 | 325 | 12.0 | 15.0 | 0.00 | 0.00 | 0.00 | 55 | 1014.2 |
| 20260506110003 | 54 | 308 | 18.0 | 21.0 | 0.00 | 0.00 | 0.00 | 55 | 1014.2 |
| 20260506105552 | 53 | 295 | 14.0 | 16.0 | 0.00 | 0.00 | 0.00 | 55 | 1014.2 |
| 20260506105503 | 54 | 306 | 18.0 | 21.0 | 0.00 | 0.00 | 0.00 | 55 | 1014.4 |
| 20260506105050 | 53 | 310 | 15.0 | 16.0 | 0.00 | 0.00 | 0.00 | 55 | 1014.5 |
| 20260506105003 | 54 | 312 | 17.0 | 21.0 | 0.00 | 0.00 | 0.00 | 55 | 1014.5 |
| 20260506104548 | 53 | 346 | 13.0 | 15.0 | 0.00 | 0.00 | 0.00 | 56 | 1014.4 |
| 20260506104503 | 54 | 315 | 16.0 | 21.0 | 0.00 | 0.00 | 0.00 | 56 | 1014.4 |
| 20260506104045 | 52 | 309 | 14.0 | 18.0 | 0.00 | 0.00 | 0.00 | 56 | 1014.3 |
| 20260506104003 | 54 | 319 | 15.0 | 19.0 | 0.00 | 0.00 | 0.00 | 56 | 1014.3 |
| 20260506103542 | 52 | 317 | 12.0 | 13.0 | 0.00 | 0.00 | 0.00 | 57 | 1014.2 |
| 20260506103504 | 54 | 322 | 14.0 | 18.0 | 0.00 | 0.00 | 0.00 | 57 | 1014.2 |
| 20260506103039 | 52 | 317 | 13.0 | 16.0 | 0.00 | 0.00 | 0.00 | 57 | 1014.3 |
| 20260506103003 | 54 | 320 | 14.0 | 18.0 | 0.00 | 0.00 | 0.00 | 57 | 1014.3 |
| 20260506102537 | 52 | 321 | 11.0 | 13.0 | 0.00 | 0.00 | 0.00 | 57 | 1014.0 |
| 20260506102503 | 54 | 316 | 14.0 | 19.0 | 0.00 | 0.00 | 0.00 | 57 | 1014.1 |
| 20260506102034 | 52 | 329 | 11.0 | 12.0 | 0.00 | 0.00 | 0.00 | 57 | 1014.2 |
| 20260506102003 | 54 | 312 | 17.0 | 22.0 | 0.00 | 0.00 | 0.00 | 57 | 1014.2 |
| 20260506101531 | 53 | 286 | 13.0 | 13.0 | 0.00 | 0.00 | 0.00 | 56 | 1014.0 |
| 20260506101503 | 54 | 306 | 20.0 | 24.0 | 0.00 | 0.00 | 0.00 | 56 | 1014.1 |
| 20260506101028 | 53 | 319 | 16.0 | 18.0 | 0.00 | 0.00 | 0.00 | 56 | 1014.2 |
| 20260506101003 | 55 | 307 | 22.0 | 24.0 | 0.00 | 0.00 | 0.00 | 56 | 1014.2 |
| 20260506100526 | 53 | 323 | 19.0 | 22.0 | 0.00 | 0.00 | 0.00 | 56 | 1014.3 |
| 20260506100024 | 53 | 314 | 17.0 | 22.0 | 0.00 | 0.00 | 0.00 | 56 | 1014.3 |